H1 CPF 2 NER 2024 1 31 9 031 01 glonass139 H2 1808601 9139 43687 2024 1 31 0 0 0 2024 2 3 23 45 0 900 1 1 0 0 0 1 H9 10 0 60340 0.00000 0 6321248.416 19835027.381 -14731499.636 10 0 60340 900.00000 0 6413959.213 21494876.907 -12136806.226 10 0 60340 1800.00000 0 6605000.582 22810283.792 -9306246.376 10 0 60340 2700.00000 0 6844275.966 23751728.901 -6294849.645 10 0 60340 3600.00000 0 7077902.928 24302206.154 -3161148.262 10 0 60340 4500.00000 0 7250713.353 24457811.042 33963.987 10 0 60340 5400.00000 0 7308814.771 24227796.746 3228418.114 10 0 60340 6300.00000 0 7202103.761 23634096.348 6360177.985 10 0 60340 7200.00000 0 6886624.512 22710332.146 9368446.150 10 0 60340 8100.00000 0 6326672.351 21500354.576 12194843.714 10 0 60340 9000.00000 0 5496552.892 20056372.867 14784541.231 10 0 60340 9900.00000 0 4381922.154 18436756.515 17087318.729 10 0 60340 10800.00000 0 2980650.723 16703600.147 19058534.657 10 0 60340 11700.00000 0 1303174.986 14920153.875 20659985.534 10 0 60340 12600.00000 0 -627679.979 13148226.506 21860640.305 10 0 60340 13500.00000 0 -2777399.370 11445669.693 22637235.997 10 0 60340 14400.00000 0 -5100971.371 9864047.402 22974723.897 10 0 60340 15300.00000 0 -7544525.038 8446587.130 22866558.212 10 0 60340 16200.00000 0 -10047346.483 7226497.369 22314822.102 10 0 60340 17100.00000 0 -12544190.863 6225720.589 21330188.745 10 0 60340 18000.00000 0 -14967795.308 5454172.873 19931718.072 10 0 60340 18900.00000 0 -17251489.588 4909501.186 18146492.681 10 0 60340 19800.00000 0 -19331796.945 4577367.809 16009099.310 10 0 60340 20700.00000 0 -21150917.656 4432249.527 13560965.131 10 0 60340 21600.00000 0 -22658992.364 4438717.703 10849560.893 10 0 60340 22500.00000 0 -23816051.083 4553145.149 7927485.568 10 0 60340 23400.00000 0 -24593566.431 4725767.698 4851449.667 10 0 60340 24300.00000 0 -24975546.007 4903013.244 1681176.548 10 0 60340 25200.00000 0 -24959117.875 5029999.506 -1521757.083 10 0 60340 26100.00000 0 -24554584.305 5053094.384 -4695118.797 10 0 60340 27000.00000 0 -23784941.257 4922429.885 -7777232.596 10 0 60340 27900.00000 0 -22684883.592 4594262.357 -10708181.515 10 0 60340 28800.00000 0 -21299337.771 4033078.088 -13430976.703 10 0 60340 29700.00000 0 -19681583.719 3213354.070 -15892669.694 10 0 60340 30600.00000 0 -17891044.895 2120898.205 -18045385.775 10 0 60340 31500.00000 0 -15990839.536 753711.079 -19847258.001 10 0 60340 32400.00000 0 -14045195.989 -877668.404 -21263243.535 10 0 60340 33300.00000 0 -12116840.577 -2750349.439 -22265806.437 10 0 60340 34200.00000 0 -10264467.446 -4829801.257 -22835453.699 10 0 60340 35100.00000 0 -8540396.140 -7071061.969 -22961114.293 10 0 60340 36000.00000 0 -6988514.546 -9420394.842 -22640354.038 10 0 60340 36900.00000 0 -5642592.790 -11817323.697 -21879422.246 10 0 60340 37800.00000 0 -4525037.885 -14196963.226 -20693129.319 10 0 60340 38700.00000 0 -3646140.357 -16492547.584 -19104557.652 10 0 60340 39600.00000 0 -3003843.404 -18638052.177 -17144611.427 10 0 60340 40500.00000 0 -2584043.113 -20570799.527 -14851413.913 10 0 60340 41400.00000 0 -2361405.891 -22233940.634 -12269563.932 10 0 60340 42300.00000 0 -2300667.482 -23578708.289 -9449265.928 10 0 60340 43200.00000 0 -2358357.616 -24566348.263 -6445350.678 10 0 60340 44100.00000 0 -2484876.321 -25169647.788 -3316205.869 10 0 60340 45000.00000 0 -2626833.125 -25373997.564 -122637.752 10 0 60340 45900.00000 0 -2729549.237 -25177943.254 3073313.589 10 0 60340 46800.00000 0 -2739616.041 -24593203.874 6209581.827 10 0 60340 47700.00000 0 -2607400.927 -23644156.966 9225280.913 10 0 60340 48600.00000 0 -2289393.900 -22366812.858 12061886.782 10 0 60340 49500.00000 0 -1750295.305 -20807321.679 14664371.152 10 0 60340 50400.00000 0 -964756.107 -19020076.266 16982265.475 10 0 60340 51300.00000 0 81303.057 -17065490.780 18970634.742 10 0 60340 52200.00000 0 1389850.047 -15007548.050 20590942.825 10 0 60340 53100.00000 0 2950412.548 -12911218.009 21811793.258 10 0 60340 54000.00000 0 4740277.106 -10839854.519 22609531.909 10 0 60340 54900.00000 0 6725208.432 -8852678.432 22968700.661 10 0 60340 55800.00000 0 8860660.059 -7002450.899 22882333.920 10 0 60340 56700.00000 0 11093427.035 -5333432.778 22352092.678 10 0 60340 57600.00000 0 13363673.136 -3879714.047 21388233.673 10 0 60340 58500.00000 0 15607249.449 -2663981.741 20009414.124 10 0 60340 59400.00000 0 17758209.030 -1696776.830 18242335.395 10 0 60340 60300.00000 0 19751413.996 -976270.127 16121231.844 10 0 60340 61200.00000 0 21525127.213 -488565.905 13687213.956 10 0 60340 62100.00000 0 23023481.056 -208519.883 10987477.684 10 0 60340 63000.00000 0 24198720.405 -101036.746 8074394.484 10 0 60340 63900.00000 0 25013126.081 -122792.227 5004499.142 10 0 60340 64800.00000 0 25440537.949 -224306.758 1837394.602 10 0 60340 65700.00000 0 25467413.413 -352282.743 -1365405.088 10 0 60340 66600.00000 0 25093376.385 -452106.138 -4541671.080 10 0 60340 67500.00000 0 24331233.139 -470405.868 -7629671.723 10 0 60340 68400.00000 0 23206453.890 -357561.970 -10569376.186 10 0 60340 69300.00000 0 21756141.505 -70055.385 -13303625.731 10 0 60340 70200.00000 0 20027530.380 427441.084 -15779249.289 10 0 60340 71100.00000 0 18076078.349 1160320.201 -17948101.200 10 0 60340 72000.00000 0 15963231.621 2142720.926 -19768000.556 10 0 60340 72900.00000 0 13753956.402 3376689.148 -21203553.706 10 0 60340 73800.00000 0 11514140.525 4851855.138 -22226843.935 10 0 60340 74700.00000 0 9307973.729 6545642.497 -22817974.944 10 0 60340 75600.00000 0 7195415.882 8424001.007 -22965457.768 10 0 60340 76500.00000 0 5229858.550 10442633.737 -22666433.783 10 0 60340 77400.00000 0 3456077.073 12548667.934 -21926729.604 10 0 60340 78300.00000 0 1908557.944 14682700.632 -20760742.902 10 0 60340 79200.00000 0 610270.473 16781134.046 -19191161.338 10 0 60340 80100.00000 0 -428066.976 18778703.592 -17248520.040 10 0 60340 81000.00000 0 -1208196.675 20611093.115 -14970606.092 10 0 60340 81900.00000 0 -1743999.717 22217528.139 -12401721.552 10 0 60340 82800.00000 0 -2060657.602 23543238.616 -9591819.309 10 0 60340 83700.00000 0 -2193333.924 24541688.078 -6595528.675 10 0 60340 84600.00000 0 -2185433.098 25176475.775 -3471089.869 10 0 60340 85500.00000 0 -2086510.927 25422832.061 -279218.499 10 0 60341 0.00000 0 -1949926.456 25268644.491 2918077.172 10 0 60341 900.00000 0 -1830335.374 24714971.645 6058704.419 10 0 60341 1800.00000 0 -1781132.023 23776023.787 9081691.458 10 0 60341 2700.00000 0 -1851948.627 22478611.280 11928372.052 10 0 60341 3600.00000 0 -2086318.167 20861084.473 14543521.875 10 0 60341 4500.00000 0 -2519599.952 18971809.816 16876426.342 10 0 60341 5400.00000 0 -3177255.710 16867246.224 18881859.240 10 0 60341 6300.00000 0 -4073549.168 14609702.146 20520953.735 10 0 60341 7200.00000 0 -5210724.184 12264866.789 21761949.540 10 0 60341 8100.00000 0 -6578696.438 9899217.982 22580802.593 10 0 60341 9000.00000 0 -8155272.303 7577413.933 22961646.190 10 0 60341 9900.00000 0 -9906886.594 5359776.510 22897095.303 10 0 60341 10800.00000 0 -11789829.394 3299969.668 22388388.631 10 0 60341 11700.00000 0 -13751911.926 1442968.356 21445365.826 10 0 60341 12600.00000 0 -15734503.181 -176598.719 20086280.203 10 0 60341 13500.00000 0 -17674853.534 -1535664.653 18337450.169 10 0 60341 14400.00000 0 -19508609.539 -2623448.592 16232755.468 10 0 60341 15300.00000 0 -21172415.759 -3441659.334 13812987.233 10 0 60341 16200.00000 0 -22606495.606 -4004170.546 11125063.577 10 0 60341 17100.00000 0 -23757103.556 -4336181.876 8221125.151 10 0 60341 18000.00000 0 -24578746.085 -4472901.748 5157527.580 10 0 60341 18900.00000 0 -25036077.955 -4457807.772 1993749.907 10 0 60341 19800.00000 0 -25105393.763 -4340558.648 -1208759.915 10 0 60341 20700.00000 0 -24775651.452 -4174646.247 -4387779.955 10 0 60341 21600.00000 0 -24048983.991 -4014887.796 -7481526.079 10 0 60341 22500.00000 0 -22940676.971 -3914864.938 -10429856.571 10 0 60341 23400.00000 0 -21478612.351 -3924418.903 -13175445.546 10 0 60341 24300.00000 0 -19702201.115 -4087308.674 -15664901.789 10 0 60341 25200.00000 0 -17660849.176 -4439132.197 -17849810.804 10 0 60341 26100.00000 0 -15412020.526 -5005599.506 -19687679.411 10 0 60341 27000.00000 0 -13018978.495 -5801231.745 -21142764.359 10 0 60341 27900.00000 0 -10548299.403 -6828541.999 -22186768.829 10 0 60341 28800.00000 0 -8067262.331 -8077733.458 -22799393.344 10 0 60341 29700.00000 0 -5641223.709 -9526928.639 -22968730.568 10 0 60341 30600.00000 0 -3331085.854 -11142920.973 -22691496.487 10 0 60341 31500.00000 0 -1190964.570 -12882418.071 -21973093.628 10 0 60341 32400.00000 0 733847.642 -14693725.297 -20827505.159 10 0 60341 33300.00000 0 2408538.640 -16518799.703 -19277021.935 10 0 60341 34200.00000 0 3809985.798 -18295588.720 -17351807.710 10 0 60341 35100.00000 0 4927467.928 -19960555.912 -15089310.892 10 0 60341 36000.00000 0 5762851.530 -21451288.070 -12533534.154 10 0 60341 36900.00000 0 6330244.972 -22709074.335 -9734176.127 10 0 60341 37800.00000 0 6655136.654 -23681349.049 -6745661.928 10 0 60341 38700.00000 0 6773054.937 -24323895.668 -3626081.581 10 0 60341 39600.00000 0 6727807.758 -24602719.017 -436057.372 10 0 60341 40500.00000 0 6569377.602 -24495507.169 2762437.434 10 0 60341 41400.00000 0 6351561.947 -23992621.487 5907285.053 10 0 60341 42300.00000 0 6129459.930 -23097573.333 8937430.903 10 0 60341 43200.00000 0 5956912.310 -21826967.561 11794068.775 10 0 60341 44100.00000 0 5884003.504 -20209915.339 14421780.301 10 0 60341 45000.00000 0 5954731.618 -18286941.062 16769606.631 10 0 60341 45900.00000 0 6204945.049 -16108429.172 18792031.843 10 0 60341 46800.00000 0 6660632.782 -13732675.695 20449859.587 10 0 60341 47700.00000 0 7336640.517 -11223625.551 21710966.614 10 0 60341 48600.00000 0 8235866.807 -8648389.401 22550919.425 10 0 60341 49500.00000 0 9348973.301 -6074642.622 22953442.875 10 0 60341 50400.00000 0 10654621.790 -3568013.652 22910732.291 10 0 60341 51300.00000 0 12120228.877 -1189569.079 22423603.557 10 0 60341 52200.00000 0 13703207.609 1006501.254 21501478.416 10 0 60341 53100.00000 0 15352645.220 2974904.160 20162205.202 10 0 60341 54000.00000 0 17011347.951 4680885.271 18431718.051 10 0 60341 54900.00000 0 18618168.509 6101426.223 16343540.568 10 0 60341 55800.00000 0 20110519.738 7225947.936 13938142.797 10 0 60341 56700.00000 0 21426969.968 8056491.496 11262163.082 10 0 60341 57600.00000 0 22509811.723 8607369.823 8367509.136 10 0 60341 58500.00000 0 23307496.144 8904305.336 5310355.091 10 0 60341 59400.00000 0 23776830.690 8983090.464 2150053.601 10 0 60341 60300.00000 0 23884847.267 8887827.932 -1052016.109 10 0 60341 61200.00000 0 23610261.494 8668825.590 -4233641.703 10 0 60341 62100.00000 0 22944460.801 8380235.322 -7332989.237 10 0 60341 63000.00000 0 21891978.844 8077536.484 -10289808.675 10 0 60341 63900.00000 0 20470435.302 7814971.045 -13046609.374 10 0 60341 64800.00000 0 18709942.691 7643039.737 -15549782.140 10 0 60341 65700.00000 0 16652004.272 7606165.910 -17750645.553 10 0 60341 66600.00000 0 14347948.642 7740626.694 -19606395.818 10 0 60341 67500.00000 0 11856966.014 8072839.698 -21080941.510 10 0 60341 68400.00000 0 9243827.837 8618078.366 -22145606.911 10 0 60341 69300.00000 0 6576384.657 9379670.921 -22779690.363 10 0 60341 70200.00000 0 3922946.218 10348717.414 -22970866.915 10 0 60341 71100.00000 0 1349652.573 11504337.470 -22715427.657 10 0 60341 72000.00000 0 -1082054.750 12814438.978 -22018351.190 10 0 60341 72900.00000 0 -3317756.809 14236976.014 -20893205.985 10 0 60341 73800.00000 0 -5312080.506 15721643.658 -19361885.479 10 0 60341 74700.00000 0 -7030337.569 17211938.907 -17454181.032 10 0 60341 75600.00000 0 -8449711.961 18647501.406 -15207200.938 10 0 60341 76500.00000 0 -9559947.346 19966635.768 -12664646.676 10 0 60341 77400.00000 0 -10363507.167 21108909.468 -9875960.471 10 0 60341 78300.00000 0 -10875202.142 22017716.978 -6895360.816 10 0 60341 79200.00000 0 -11121302.333 22642702.043 -3780784.894 10 0 60341 80100.00000 0 -11138172.673 22941935.969 -592758.859 10 0 60341 81000.00000 0 -10970490.949 22883759.959 2606781.650 10 0 60341 81900.00000 0 -10669124.742 22448213.802 5755697.334 10 0 60341 82800.00000 0 -10288758.146 21627990.642 8792853.482 10 0 60341 83700.00000 0 -9885369.471 20428877.591 11659306.816 10 0 60341 84600.00000 0 -9513667.126 18869663.634 14299447.724 10 0 60341 85500.00000 0 -9224592.427 16981518.605 16662075.735 10 0 60342 0.00000 0 -9062994.917 14806869.310 18701387.514 10 0 60342 900.00000 0 -9065578.149 12397818.328 20377859.777 10 0 60342 1800.00000 0 -9259202.594 9814174.025 21659008.052 10 0 60342 2700.00000 0 -9659616.670 7121169.406 22520011.024 10 0 60342 3600.00000 0 -10270669.463 4386966.746 22944186.351 10 0 60342 4500.00000 0 -11084038.214 1680049.615 22923310.540 10 0 60342 5400.00000 0 -12079482.368 -933390.363 22457777.014 10 0 60342 6300.00000 0 -13225614.102 -3391964.794 21556589.463 10 0 60342 7200.00000 0 -14481153.790 -5641394.802 20237190.557 10 0 60342 8100.00000 0 -15796618.706 -7636517.810 18525128.943 10 0 60342 9000.00000 0 -17116375.162 -9342912.493 16453570.355 10 0 60342 9900.00000 0 -18380968.910 -10738075.270 14062661.532 10 0 60342 10800.00000 0 -19529636.820 -11812100.165 11398758.427 10 0 60342 11700.00000 0 -20502894.884 -12567834.370 8513532.853 10 0 60342 12600.00000 0 -21245093.987 -13020503.631 5462974.256 10 0 60342 13500.00000 0 -21706835.850 -13196823.748 2306305.539 10 0 60342 14400.00000 0 -21847147.007 -13133636.060 -895166.220 10 0 60342 15300.00000 0 -21635318.557 -12876124.935 -4079241.723 10 0 60342 16200.00000 0 -21052333.227 -12475692.975 -7184040.604 10 0 60342 17100.00000 0 -20091818.559 -11987584.295 -10149207.804 10 0 60342 18000.00000 0 -18760484.927 -11468356.935 -12917091.070 10 0 60342 18900.00000 0 -17078028.811 -10973311.940 -15433866.155 10 0 60342 19800.00000 0 -15076504.299 -10553988.473 -17650587.350 10 0 60342 20700.00000 0 -12799188.233 -10255831.476 -19524142.501 10 0 60342 21600.00000 0 -10298985.690 -10116131.048 -21018093.784 10 0 60342 22500.00000 0 -7636441.775 -10162321.057 -22103387.819 10 0 60342 23400.00000 0 -4877442.175 -10410709.293 -22758921.402 10 0 60342 24300.00000 0 -2090697.809 -10865693.114 -22971952.020 10 0 60342 25200.00000 0 654882.131 -11519494.037 -22738345.335 10 0 60342 26100.00000 0 3292819.895 -12352422.796 -22062654.997 10 0 60342 27000.00000 0 5761592.762 -13333664.043 -20958033.302 10 0 60342 27900.00000 0 8006946.161 -14422547.931 -19445974.425 10 0 60342 28800.00000 0 9983900.706 -15570255.280 -17555895.173 10 0 60342 29700.00000 0 11658370.419 -16721884.706 -15324561.297 10 0 60342 30600.00000 0 13008325.656 -17818794.711 -12795370.414 10 0 60342 31500.00000 0 14024453.305 -18801122.023 -10017505.474 10 0 60342 32400.00000 0 14710287.947 -19610369.917 -7044975.306 10 0 60342 33300.00000 0 15081809.922 -20191957.168 -3935561.101 10 0 60342 34200.00000 0 15166528.658 -20497619.834 -749689.672 10 0 60342 35100.00000 0 15002091.334 -20487564.310 2450744.149 10 0 60342 36000.00000 0 14634476.889 -20132280.507 5603582.617 10 0 60342 36900.00000 0 14115852.819 -19413938.506 8647613.776 10 0 60342 37800.00000 0 13502186.244 -18327309.568 11523759.895 10 0 60342 38700.00000 0 12850710.836 -16880172.550 14176222.414 10 0 60342 39600.00000 0 12217357.026 -15093188.373 16553561.177 10 0 60342 40500.00000 0 11654254.074 -12999247.492 18609687.302 10 0 60342 41400.00000 0 11207409.233 -10642317.258 20304750.980 10 0 60342 42300.00000 0 10914661.519 -8075836.736 21605907.647 10 0 60342 43200.00000 0 10803995.834 -5360725.225 22487948.501 10 0 60342 44100.00000 0 10892287.932 -2563086.410 22933783.952 10 0 60342 45000.00000 0 11184532.710 248297.441 22934771.285 10 0 60342 45900.00000 0 11673588.062 3004578.369 22490880.721 10 0 60342 46800.00000 0 12340445.204 5639455.596 21610696.867 10 0 60342 47700.00000 0 13155014.422 8091681.150 20311255.442 10 0 60342 48600.00000 0 14077393.840 10307355.538 18617718.092 10 0 60342 49500.00000 0 15059568.630 12241919.200 16562890.966 10 0 60342 50400.00000 0 16047470.047 13861757.897 14186595.603 10 0 60342 51300.00000 0 16983308.414 15145356.013 11534903.496 10 0 60342 52200.00000 0 17808082.492 16083950.319 8659248.329 10 0 60342 53100.00000 0 18464159.865 16681657.412 5615432.482 10 0 60342 54000.00000 0 18897819.610 16955070.014 2462546.605 10 0 60342 54900.00000 0 19061649.772 16932339.472 -738176.958 10 0 60342 55800.00000 0 18916697.854 16651783.535 -3924554.547 10 0 60342 56700.00000 0 18434282.703 16160078.496 -7034661.930 10 0 60342 57600.00000 0 17597390.282 15510112.447 -10008041.456 10 0 60342 58500.00000 0 16401593.205 14758590.830 -12786881.509 10 0 60342 59400.00000 0 14855454.025 13963495.945 -15317144.823 10 0 60342 60300.00000 0 12980393.981 13181508.285 -17549623.180 10 0 60342 61200.00000 0 10810031.512 12465499.134 -19440897.624 10 0 60342 62100.00000 0 8389017.134 11862200.705 -20954185.267 10 0 60342 63000.00000 0 5771412.444 11410152.521 -22060056.210 10 0 60342 63900.00000 0 3018680.160 11138010.894 -22737006.652 10 0 60342 64800.00000 0 197368.288 11063292.923 -22971877.238 10 0 60342 65700.00000 0 -2623415.730 11191608.017 -22760108.679 10 0 60342 66600.00000 0 -5374636.308 11516409.327 -22105829.822 10 0 60342 67500.00000 0 -7989957.540 12019275.539 -21021776.562 10 0 60342 68400.00000 0 -10408258.808 12670711.093 -19529043.179 10 0 60342 69300.00000 0 -12575934.105 13431431.051 -17656670.871 10 0 60342 70200.00000 0 -14448880.002 14254076.350 -15441081.398 10 0 60342 71100.00000 0 -15994090.230 15085286.973 -12925366.726 10 0 60342 72000.00000 0 -17190791.215 15868045.367 -10158448.457 10 0 60342 72900.00000 0 -18031072.184 16544190.951 -7194123.486 10 0 60342 73800.00000 0 -18519984.671 17056999.192 -4090014.588 10 0 60342 74700.00000 0 -18675108.574 17353715.954 -906446.722 10 0 60342 75600.00000 0 -18525604.359 17387939.681 2294728.670 10 0 60342 76500.00000 0 -18110792.689 17121750.376 5451338.022 10 0 60342 77400.00000 0 -17478322.554 16527495.156 8502094.776 10 0 60342 78300.00000 0 -16682006.245 15589154.686 11387789.396 10 0 60342 79200.00000 0 -15779413.286 14303232.552 14052436.996 10 0 60342 80100.00000 0 -14829325.371 12679129.814 16444360.276 10 0 60342 81000.00000 0 -13889159.792 10738988.533 18517187.066 10 0 60342 81900.00000 0 -13012469.807 8517010.305 20230743.640 10 0 60342 82800.00000 0 -12246626.863 6058277.623 21551827.150 10 0 60342 83700.00000 0 -11630781.558 3417126.441 22454843.029 10 0 60342 84600.00000 0 -11194188.437 655136.706 22922295.818 10 0 60342 85500.00000 0 -10954964.306 -2161176.644 22945124.582 10 0 60343 0.00000 0 -10919331.654 -4962877.340 22522876.994 10 0 60343 900.00000 0 -11081378.576 -7681224.535 21663718.653 10 0 60343 1800.00000 0 -11423345.143 -10250281.656 20384278.037 10 0 60343 2700.00000 0 -11916424.220 -12609415.262 18709329.023 10 0 60343 3600.00000 0 -12522043.494 -14705577.562 16671316.941 10 0 60343 4500.00000 0 -13193575.215 -16495280.104 14309736.477 10 0 60343 5400.00000 0 -13878402.202 -17946177.016 11670372.616 10 0 60343 6300.00000 0 -14520253.576 -19038192.389 8804418.537 10 0 60343 7200.00000 0 -15061712.044 -19764145.120 5767486.902 10 0 60343 8100.00000 0 -15446787.020 -20129845.423 2618533.254 10 0 60343 9000.00000 0 -15623444.739 -20153659.263 -581287.816 10 0 60343 9900.00000 0 -15545987.976 -19865559.262 -3769811.424 10 0 60343 10800.00000 0 -15177184.034 -19305702.338 -6885072.689 10 0 60343 11700.00000 0 -14490050.068 -18522594.356 -9866514.619 10 0 60343 12600.00000 0 -13469219.126 -17570919.552 -12656169.483 10 0 60343 13500.00000 0 -12111827.956 -16509126.755 -15199790.147 10 0 60343 14400.00000 0 -10427887.733 -15396874.670 -17447908.881 10 0 60343 15300.00000 0 -8440120.750 -14292444.404 -19356802.635 10 0 60343 16200.00000 0 -6183268.583 -13250228.678 -20889345.803 10 0 60343 17100.00000 0 -3702899.482 -12318403.784 -22015733.832 10 0 60343 18000.00000 0 -1053763.814 -11536882.444 -22714063.667 10 0 60343 18900.00000 0 1702234.751 -10935633.766 -22970759.902 10 0 60343 19800.00000 0 4498368.556 -10533440.806 -22780838.524 10 0 60343 20700.00000 0 7265619.408 -10337147.810 -22148003.295 10 0 60343 21600.00000 0 9935311.366 -10341428.413 -21084572.958 10 0 60343 22500.00000 0 12441733.881 -10529084.206 -19611240.716 10 0 60343 23400.00000 0 14724646.579 -10871860.633 -17756670.582 10 0 60343 24300.00000 0 16731561.975 -11331745.406 -15556938.363 10 0 60343 25200.00000 0 18419711.561 -11862694.211 -13054828.026 10 0 60343 26100.00000 0 19757613.886 -12412710.426 -10298997.124 10 0 60343 27000.00000 0 20726179.920 -12926190.489 -7343027.565 10 0 60343 27900.00000 0 21319310.399 -13346435.354 -4244380.374 10 0 60343 28800.00000 0 21543961.180 -13618221.304 -1063275.123 10 0 60343 29700.00000 0 21419675.043 -13690320.916 2138483.741 10 0 60343 30600.00000 0 20977600.852 -13517867.113 5298710.410 10 0 60343 31500.00000 0 20259042.540 -13064459.877 8356047.125 10 0 60343 32400.00000 0 19313600.098 -12303926.252 11251155.671 10 0 60343 33300.00000 0 18196981.725 -11221658.920 13927867.592 10 0 60343 34200.00000 0 16968579.937 -9815476.534 16334270.790 10 0 60343 35100.00000 0 15688913.930 -8095969.128 18423711.709 10 0 60343 36000.00000 0 14417045.814 -6086313.482 20155694.162 10 0 60343 36900.00000 0 13208078.969 -3821565.480 21496658.043 10 0 60343 37800.00000 0 12110843.033 -1347458.135 22420623.627 10 0 60343 38700.00000 0 11165861.852 1281245.639 22909689.799 10 0 60343 39600.00000 0 10403688.803 4002778.083 22954377.236 10 0 60343 40500.00000 0 9843678.373 6750686.568 22553810.414 10 0 60343 41400.00000 0 9493244.749 9456353.506 21715735.207 10 0 60343 42300.00000 0 9347637.919 12051612.851 20456371.630 10 0 60343 43200.00000 0 9390246.297 14471355.846 18800104.311 10 0 60343 44100.00000 0 9593413.028 16656018.926 16779016.029 10 0 60343 45000.00000 0 9919731.712 18553851.202 14432272.632 10 0 60343 45900.00000 0 10323767.225 20122867.920 11805370.403 10 0 60343 46800.00000 0 10754129.364 21332408.957 8949259.615 10 0 60343 47700.00000 0 11155812.057 22164237.546 5919360.644 10 0 60343 48600.00000 0 11472699.418 22613133.506 2774491.206 10 0 60343 49500.00000 0 11650132.603 22686956.187 -424274.664 10 0 60343 50400.00000 0 11637428.504 22406174.569 -3614793.676 10 0 60343 51300.00000 0 11390243.111 21802884.381 -6735063.066 10 0 60343 52200.00000 0 10872678.620 20919353.729 -9724429.132 10 0 60343 53100.00000 0 10059044.093 19806158.716 -12524770.453 10 0 60343 54000.00000 0 8935193.992 18519987.869 -15081632.215 10 0 60343 54900.00000 0 7499386.669 17121208.174 -17345289.102 10 0 60343 55800.00000 0 5762625.225 15671295.566 -19271715.636 10 0 60343 56700.00000 0 3748464.942 14230238.290 -20823444.908 10 0 60343 57600.00000 0 1492293.973 12854022.567 -21970298.901 10 0 60343 58500.00000 0 -959883.807 11592306.330 -22689976.251 10 0 60343 59400.00000 0 -3553114.064 10486378.690 -22968486.180 10 0 60343 60300.00000 0 -6225536.837 9567490.546 -22800420.334 10 0 60343 61200.00000 0 -8910726.497 8855626.060 -22189057.402 10 0 60343 62100.00000 0 -11540230.040 8358766.017 -21146298.582 10 0 60343 63000.00000 0 -14046198.622 8072673.354 -19692435.172 10 0 60343 63900.00000 0 -16364003.170 7981209.125 -17855752.736 10 0 60343 64800.00000 0 -18434725.594 8057164.842 -15671979.479 10 0 60343 65700.00000 0 -20207422.126 8263575.289 -13183589.402 10 0 60343 66600.00000 0 -21641064.786 8555455.687 -10438973.801 10 0 60343 67500.00000 0 -22706080.377 8881889.048 -7491497.240 10 0 60343 68400.00000 0 -23385423.264 9188374.810 -4398456.548 10 0 60343 69300.00000 0 -23675137.757 9419338.666 -1219963.422 10 0 60343 70200.00000 0 -23584387.406 9520696.791 1982227.208 10 0 60343 71100.00000 0 -23134950.963 9442365.296 5145919.807 10 0 60343 72000.00000 0 -22360207.240 9140608.237 8209687.948 10 0 60343 72900.00000 0 -21303652.539 8580124.374 11114067.256 10 0 60343 73800.00000 0 -20017013.861 7735784.105 13802708.192 10 0 60343 74700.00000 0 -18558037.913 6593942.830 16223466.265 10 0 60343 75600.00000 0 -16988049.226 5153274.947 18329408.803 10 0 60343 76500.00000 0 -15369379.989 3425092.867 20079719.233 10 0 60343 77400.00000 0 -13762779.218 1433136.934 21440482.002 10 0 60343 78300.00000 0 -12224909.326 -787155.783 22385333.745 10 0 60343 79200.00000 0 -10806034.113 -3189874.351 22895968.866 10 0 60343 80100.00000 0 -9547994.041 -5720298.630 22962490.468 10 0 60343 81000.00000 0 -8482552.419 -8316937.755 22583600.352 10 0 60343 81900.00000 0 -7630180.687 -10913859.039 21766624.676 10 0 60343 82800.00000 0 -6999332.697 -13443211.829 20527374.744 10 0 60343 83700.00000 0 -6586237.618 -15837842.749 18889845.299 10 0 60343 84600.00000 0 -6375219.604 -18033894.761 16885755.581 10 0 60343 85500.00000 0 -6339530.422 -19973282.838 14553941.276 99